Date,TemperatureHighF,TemperatureAvgF,TemperatureLowF,DewpointHighF,DewpointAvgF,DewpointLowF,HumidityHigh,HumidityAvg,HumidityLow,PressureMaxIn,PressureMinIn,WindSpeedMaxMPH,WindSpeedAvgMPH,GustSpeedMaxMPH,PrecipitationSumIn
2013-3-1,58,55,52,52,50,48,90,85,78,30.09,29.97,0,0,0,0.00
2013-3-2,55,51,43,49,46,39,89,84,78,29.97,29.81,0,0,0,0.00
2013-3-3,47,42,36,39,36,32,89,81,72,29.96,29.90,0,0,0,0.00
2013-3-4,53,43,34,36,32,28,89,68,48,29.90,29.57,0,0,0,0.00
2013-3-5,46,42,40,41,35,28,90,77,56,29.56,29.31,0,0,0,0.00
2013-3-6,43,41,40,41,39,37,93,91,89,29.61,29.20,0,0,0,0.00
2013-3-7,51,44,37,42,38,34,92,81,64,29.70,29.61,0,0,0,0.00
2013-3-8,55,45,37,43,37,35,90,75,55,29.85,29.68,0,0,0,0.00
2013-3-9,55,46,36,44,38,32,87,74,57,30.13,29.86,0,0,0,0.00
2013-3-10,49,44,39,42,38,34,85,80,75,30.13,30.05,0,0,0,0.00
2013-3-11,54,49,44,48,45,40,88,86,82,30.07,29.90,0,0,0,0.00
2013-3-12,59,54,50,50,48,44,90,81,68,29.89,29.81,0,0,0,0.00
2013-3-13,62,54,48,51,47,44,85,77,63,29.87,29.75,0,0,0,0.00
2013-3-14,59,54,50,49,46,40,87,76,51,29.86,29.70,0,0,0,0.00
2013-3-15,63,56,50,50,47,45,87,75,56,29.89,29.82,0,0,0,0.00
2013-3-16,50,47,40,45,42,36,90,85,79,29.83,29.67,0,0,0,0.00
2013-3-17,49,42,36,38,35,33,89,75,55,29.94,29.78,0,0,0,0.00
2013-3-18,52,44,37,40,36,33,85,74,60,29.92,29.82,0,0,0,0.00
2013-3-19,51,44,39,42,38,34,91,80,63,29.81,29.34,0,0,0,0.00
2013-3-20,51,48,40,49,43,34,94,84,68,29.80,29.19,0,0,0,0.00
2013-3-21,48,42,38,40,35,34,90,79,63,29.95,29.81,0,0,0,0.00
2013-3-22,46,39,34,37,34,31,89,83,68,30.03,29.93,0,0,0,0.00
2013-3-23,47,40,34,39,34,30,91,78,60,30.03,29.92,0,0,0,0.00
2013-3-24,54,45,38,37,34,30,83,66,51,29.92,29.74,0,0,0,0.00
2013-3-25,60,51,42,38,34,29,64,52,39,29.74,29.57,0,0,0,0.00
2013-3-26,54,48,42,46,41,36,83,76,58,29.68,29.62,0,0,0,0.00
2013-3-27,66,53,43,51,44,40,90,74,54,29.64,29.55,0,0,0,0.00
2013-3-28,67,54,46,54,46,43,89,74,53,29.78,29.65,0,0,0,0.00
2013-3-29,67,58,49,55,48,44,87,70,50,29.86,29.79,0,0,0,0.00
2013-3-30,74,60,47,54,47,42,84,65,46,29.84,29.64,0,0,0,0.00
2013-3-31,77,62,50,57,48,42,76,61,47,29.66,29.56,0,0,0,0.00